Simultaneous Nadir Overpasses (SNOs) Predictions

Prediction of SNOs between AQUA and NPP Satellite Orbit:

Table of predicted SNOs for the next 14.0 days since TLE Epoch: 1/8/2018
Index Date (AQUA) Time (AQUA) Lat,Lon (AQUA) SZA (AQUA ) Date (NPP) Time (NPP) Lat,Lon (NPP) SZA (NPP ) Distance(km) Time Diff (sec)
1 01/08/2018 21:48:55 75.78, 91.29 119.38 01/08/2018 21:47:59 75.78, 91.29 119.43 0.25 56
2 01/08/2018 22:37:57 -76.98, -97.08 61.98 01/08/2018 22:38:18 -76.99, -97.00 62.02 2.24 21
3 01/11/2018 14:05:13 76.31,-151.17 118.46 01/11/2018 14:04:40 76.32,-151.11 118.48 1.60 33
4 01/11/2018 14:54:26 -76.98, 18.78 62.31 01/11/2018 14:55:11 -76.97, 18.71 62.33 1.84 45
5 01/14/2018 06:21:41 76.40, -35.02 117.98 01/14/2018 06:21:32 76.39, -35.08 118.01 1.86 9
6 01/14/2018 07:10:47 -77.38, 136.23 63.17 01/14/2018 07:11:55 -77.39, 136.26 63.24 0.60 68
7 01/16/2018 21:48:53 -75.99, -88.06 62.00 01/16/2018 21:47:50 -76.00, -87.98 61.97 2.45 63
8 01/16/2018 22:38:01 76.85, 82.45 117.02 01/16/2018 22:38:15 76.86, 82.49 117.00 1.17 14
9 01/19/2018 14:05:20 -76.12, 28.21 62.62 01/19/2018 14:04:41 -76.12, 28.19 62.59 0.42 39




NCC Satellite Simultaneous Nadir Overpasses (SNOs) Prediction Service
